Location: Muenchen
(48.1800°N, 11.5800°E)
Time: 03:55:47
(UTC+02:00)

Iridium 36 - Visible Passes

Search period start: 28 May 2015 00:00
Search period end: 07 June 2015 00:00
Orbit: 772 x 775 km, 86.4° (Epoch: 27 May)

Date Brightness Start Highest point End Pass type
(mag) Time Alt. Az. Time Alt. Az. Time Alt. Az.
28 May 7.7 01:51:31 10° ESE 01:54:56 19° ENE 01:58:31 10° NE visible
28 May 5.6 03:31:23 19° SSW 03:35:07 65° W 03:40:19 10° N visible
29 May 8.1 01:20:04 10° E 01:20:37 10° ENE 01:21:29 10° ENE visible
29 May 5.7 02:56:54 21° S 03:00:24 73° E 03:05:37 10° N visible
29 May 7.3 04:38:19 10° WSW 04:41:45 17° WNW 04:45:02 10° NNW visible
30 May 6.5 02:22:25 18° SE 02:25:50 41° E 02:30:43 10° NNE visible
30 May 6.6 04:02:49 13° SW 04:06:39 29° WNW 04:11:08 10° NNW visible
31 May 7.3 01:47:55 12° SE 01:51:22 24° E 01:55:30 10° NNE visible
31 May 5.9 03:28:19 20° SSW 03:31:45 50° W 03:36:48 10° N visible
01 Jun 7.9 01:14:37 10° ESE 01:17:00 14° ENE 01:19:38 10° NE visible
01 Jun 5.5 02:53:49 25° S 02:56:59 87° W 03:02:13 10° N visible
01 Jun 7.5 04:35:59 10° W 04:38:34 13° WNW 04:40:54 10° NW visible
02 Jun 6.0 02:19:18 23° SSE 02:22:20 53° E 02:27:24 10° NNE visible
02 Jun 7.0 03:59:41 12° WSW 04:03:23 23° WNW 04:07:25 10° NNW visible
03 Jun 6.9 01:44:47 17° SE 01:47:49 30° E 01:52:21 10° NNE visible
03 Jun 6.3 03:25:10 19° SW 03:28:23 38° WNW 03:33:14 10° N visible
04 Jun 7.6 01:10:15 10° ESE 01:13:24 18° ENE 01:16:52 10° NE visible
04 Jun 5.6 02:50:38 26° SSW 02:53:33 68° W 02:58:45 10° N visible
04 Jun 7.8 04:34:54 10° WNW 04:35:25 10° WNW 04:35:36 10° WNW visible
05 Jun 5.7 02:16:06 28° SSE 02:18:51 69° E 02:24:03 10° N visible
05 Jun 7.3 03:56:35 10° WSW 04:00:09 18° WNW 04:03:34 10° NNW visible
06 Jun 6.5 01:41:33 22° SE 01:44:17 39° E 01:49:07 10° NNE visible
06 Jun 6.6 03:21:57 17° SW 03:25:04 30° WNW 03:29:36 10° NNW visible
